Flag for Canada Weather past 2 weeks in Yorkton, Saskatchewan, Canada

Now
57 °F

Light rain. Mostly cloudy.


Feels Like: 54 °F
Forecast: 58 / 67 °F
Wind: 14 mph from Southeast

Location: Yorkton

Current Time: Aug 5, 2015 at 6:55:21 AM

Latest Report: Aug 5, 2015 at 6:00 AM


Visibility: 9 mi

Pressure: 29.92 "Hg (28.17 "Hg at 505m altitude)

Humidity: 94%

Dew point: 55 °F

Location of YorktonLocation

Historic Weather in Yorkton — Graph

°F

Yorkton temperature yesterday

Maximum temperature yesterday: 75 °F (at 1:00 PM)
Minimum temperature yesterday: 46 °F (at 4:00 AM)
Average temperature yesterday: 63 °F

Past Weeks' High & Low Weather Summary

 TemperatureHumidityPressure
High84 °F (Jul 25, 4:00 PM)100% (Jul 21, 5:00 AM)30.12 "Hg (Jul 21, 5:00 AM)
Low46 °F (Aug 4, 4:00 AM)32% (Aug 3, 3:00 PM)29.32 "Hg (Jul 28, 4:00 PM)
Average66 °F73%29.85 "Hg
* Reported Jul 21 5:00 AM — Aug 5 5:00 AM, Yorkton, Weather by CustomWeather, © 2015

Note: Actual official high and low records may vary slightly from our data, if they occured in-between our weather recording intervals... More about our weather records

Advertising

Yorkton weather history for previous 24 hours

 ConditionsComfort  
Time TempWeatherWind HumidityBarometerVisibility
5:00 AM
Wed, Aug 5
57 °FLight rain. Overcast.15 mph94%29.95 "Hg8 mi
4:47 AM57 °FLight rain. Overcast.13 mph94%29.96 "Hg9 mi
4:00 AM57 °FLight rain. Fog.12 mph94%29.97 "Hg3 mi
3:00 AM57 °FLight rain. Fog.12 mph94%29.99 "Hg4 mi
2:54 AM59 °FLight rain. Fog.12 mph88%29.99 "Hg5 mi
2:00 AM61 °FOvercast.13 mph83%29.99 "Hg7 mi
1:00 AM61 °FOvercast.6 mph83%29.99 "Hg5 mi
12:00 AM61 °FMostly cloudy.8 mph83%29.99 "Hg5 mi
11:00 PM
Tue, Aug 4
63 °FOvercast.9 mph77%29.98 "Hg4 mi
10:00 PM63 °FPassing clouds.14 mph77%29.99 "Hg5 mi
9:00 PM64 °FClear.10 mph78%29.99 "Hg5 mi
8:00 PM66 °FOvercast.8 mph73%30.00 "Hg6 mi
7:00 PM70 °FPartly sunny.9 mph64%29.99 "Hg4 mi
6:00 PM73 °FSunny.10 mph53%30.00 "Hg4 mi
5:00 PM75 °FSunny.9 mph47%30.01 "Hg5 mi
4:00 PM75 °FSunny.10 mph41%30.02 "Hg7 mi
3:00 PM73 °FSunny.10 mph47%30.02 "Hg9 mi
2:00 PM75 °FSunny.10 mph44%30.02 "Hg9 mi
1:00 PM75 °FSunny.10 mph44%30.02 "Hg7 mi
12:00 PM73 °FSunny.8 mph53%30.02 "Hg9 mi
11:00 AM72 °FSunny.7 mph57%30.03 "Hg9 mi
10:00 AM68 °FSunny.8 mph64%30.03 "Hg9 mi
9:00 AM64 °FSunny.7 mph73%30.03 "Hg9 mi
8:00 AM57 °FSunny.5 mph88%30.04 "Hg9 mi
7:00 AM54 °FSunny.5 mph88%30.04 "Hg9 mi
6:00 AM46 °FSunny.No wind100%30.03 "Hg9 mi
Weather by CustomWeather, © 2015

See weather overviewHow to use our weather pages